CZ-6A DEB, 60801

Orbit data source: Space-Track

CZ-6A DEB, 60801 is space debris in LEO originally from a launch on Tue, 06 Aug 2024 UTC launched from the Taiyaun Space Center, China (TSC). Debris objects in space refer to the collection of defunct objects orbiting the Earth. Examples of debris include non-operational satellites, rocket bodies, and fragments generated from explosions, collisions, or faulty payload assembly.

Loading next visibility...
Identifier
60801, 2024-140GC
Orbit
LEO
Country
Flag of CNCN / PRC
Related business
Manufacturer
SAST
Mission
Spacecraft
Bus & Motor
Unknown
Mass
Unknown
Launch date (UTC)
2024-08-06 (1 year ago)
Launch vehicle
Unknown
Launch site
Taiyaun Space Center, China (TSC)
Object type
Payload
Rocket body
Debris
Shape & HBR
Unknown shape, 0.1 m
Radar Cross Section
Small (<0.1 m²)

Expand to show TLE details & history
Last TLE update: 11 hours ago

TLE from 11 hours ago
0 CZ-6A DEB
1 60801U 24140GC  25350.83744703  .00003556  00000-0  42576-3 0  9993
2 60801  88.9222 285.3701 0170800 107.5671 254.4290 14.73890972 72305
Epoch: 2025-12-16T20:05Z
TLE epoch observation values (Epoch: 2025-12-16T20:05:55.423Z)
Latitude
0.00001°
Longitude
-101.82676°
Altitude
685.919 km
Speed
7.495 km/s
True Right ascension
19h 01m 28s
True Declination
0° 00' 00"
Sunlit
Object was in daylight at epoch
Visualization orbit readout
Latitude
Unknown
Longitude
Unknown
Altitude
Unknown
Speed
Unknown
Apparent Right ascension
Unknown
Apparent Declination
Unknown
Sunlit
N/A
Visualization observer readout
Local Sidereal Time
05:30:45
Azimuth
Unknown
Elevation
Unknown
Doppler factor
Unknown
Orbital elements
Apogee altitude
765.512 km
Perigee altitude
525.583 km
Semi-major axis
7,023.684 km
Eccentricity
0.01708
Inclination
88.9222°
RAAN
285.3701°
Arg. of periapsis
107.5671°
True anomaly
252.55469°
Mean anomaly
254.429°
Eccentric anomaly
253.49073°
Mean motion
3.68719 °/min
Orbital period
97.64 mins
BSTAR
0.00042576
Loading maneuver chart data...
Computing Atmospheric mass density...

Documentation

Showing up to 5 results
|